map of FOR home
FOR - Airport
Location
City:  Fortaleza, Ceará, Brazil
Name:Pinto Martins International Airport
ICAO:SBFZ
IATA:FOR

Details
Type:Airport (Aerodrome, Airfield)
Use:Public/Civil, Military, International (customs port of entry)
Latitude:3°46'35"S (-3.776282)
Longitude:38°31'57"W (-38.532555)
Datum:WGS 1984
Elevation:82 ft (25 m)
Variation:21.10°W (WMM2015 magnetic declination)
0.04° annual change
Runways:1
Longest:8350 × 148 ft (2545 × 45 m), paved

Time
Time Zone:UTC-3
Local Time:

Weather
METAR:SBFZ 190200Z 09008KT 9999 SCT016 BKN080 27/24 Q1014
TAF:SBFZ 182200Z 1900/1924 09008KT 8000 SCT020 TN24/1908Z TX30/1916Z
BECMG 1904/1906 14008KT SCT015 SCT030
BECMG 1914/1916 08015KT
BECMG 1921/1923 09008KT
RMK PEU

Related Locations
Nearby:
Farthest:ZRM: 12002 mi / 19316 km
Sarmi [Orai Airport], PA, ID

Find:

   beyond  
but within

Other Information
Maps:
NOTAMs:
Links:
Sources:

  
  • flag of Brazil
  • flag of Ceará
  • flag of Fortaleza
  

Sectional Chart

Flight Planning
at skyvector.com

Satellite Image

Google Maps Satellite view

 

Copyright © 2004-2018 Karl L. Swartz. All rights reserved.
The Great Circle Mapper name and logo are trademarks of the Great Circle Mapper.
All other trademarks mentioned herein belong to their respective owners.
Please see credits for attibutions and further copyright information.

  Follow gcmap on Facebook Follow gcmap on Twitter Follow gcmap on Google+ GCmap on LinkedIn

hCard Microformat

Geo Microformat